This is the latest recevied weather packets stored in our database for station/object N4PWG. If no packets are shown the sender has not sent any weather packets the latest 10 day(s).
| Time | Temp. | Humidity | Pressure | Rain* | Wind** | Luminosity | Snow |
|---|---|---|---|---|---|---|---|
| 1777461456 | 16.11° C | 99% | 1028.2 hPa | 0 mm | - | 5 W/m² | - |
| 1777461154 | 16.11° C | 99% | 1028.6 hPa | 0 mm | - | 2 W/m² | - |
| 1777460848 | 16.11° C | 99% | 1029 hPa | 0 mm | - | 0 W/m² | - |
| 1777460545 | 16.67° C | 99% | 1028.9 hPa | 0 mm | - | 0 W/m² | - |
| 1777460240 | 16.67° C | 99% | 1029 hPa | 0 mm | - | 0 W/m² | - |
| 1777459938 | 16.67° C | 99% | 1028.9 hPa | 0 mm | - | 0 W/m² | - |
| 1777459634 | 16.67° C | 99% | 1029 hPa | 0 mm | - | 0 W/m² | - |
| 1777459331 | 17.22° C | 99% | 1028.9 hPa | 0 mm | - | 0 W/m² | - |
| 1777459029 | 17.78° C | 99% | 1028.8 hPa | 0 mm | - | 0 W/m² | - |
| 1777458726 | 17.78° C | 99% | 1028.8 hPa | 0 mm | - | 0 W/m² | - |
| 1777458422 | 18.33° C | 99% | 1028.8 hPa | 0 mm | - | 0 W/m² | - |
| 1777458119 | 18.89° C | 99% | 1028.6 hPa | 1.27 mm | - | 0 W/m² | - |
| 1777457815 | 18.89° C | 99% | 1028.2 hPa | 3.05 mm | - | 0 W/m² | - |
| 1777457515 | 18.89° C | 99% | 1028.4 hPa | 3.56 mm | - | 0 W/m² | - |
| 1777457210 | 18.89° C | 99% | 1028.4 hPa | 1.78 mm | - | 0 W/m² | - |
| 1777456906 | 18.89° C | 99% | 1028.3 hPa | 1.27 mm | - | 0 W/m² | - |
| 1777456602 | 18.89° C | 99% | 1028.2 hPa | 1.27 mm | - | 0 W/m² | - |
| 1777456297 | 18.89° C | 99% | 1028.3 hPa | 1.78 mm | - | 0 W/m² | - |
| 1777455993 | 18.89° C | 99% | 1028 hPa | 3.05 mm | - | 0 W/m² | - |
| 1777455690 | 18.89° C | 99% | 1027.9 hPa | 1.27 mm | - | 0 W/m² | - |
| 1777455387 | 18.89° C | 99% | 1028 hPa | 0 mm | - | 0 W/m² | - |
| 1777455084 | 18.89° C | 99% | 1027.9 hPa | 0 mm | - | 0 W/m² | - |
| 1777454780 | 18.89° C | 99% | 1028 hPa | 0 mm | - | 0 W/m² | - |
| 1777454476 | 18.89° C | 99% | 1027.8 hPa | 0 mm | - | 0 W/m² | - |
| 1777454173 | 18.89° C | 99% | 1027.9 hPa | 0 mm | - | 0 W/m² | - |
* Rain latest hour (hover to see other rain measurements)
** Current wind speed in m/s (hover to see current wind gust speed)